Find Starlink 34041

NORAD ID: 63844 Int'l Des: 2025-093 Owner: SPXS Country: US Constellation: starlink operational
LEOCIRCULAR

現在のビュー

3D地球を読み込み中...

About Starlink 34041

Starlink 34041 (NORAD 63844) is a starlink constellation satellite (v2 mini) launched May 7, 2025 by SPXS of US. It operates in LEO, CIRCULAR orbit with a mass of 575.00 kg.

次回通過

Passes for default location (London). Set your location on the main map for personalized predictions.

高度履歴

Loading altitude history...

軌道要素

1 63844U 25093J 26262.78866186 .00013305 00000-0 49188-3 0 9997
2 63844 43.0041 62.0309 0002794 280.0770 79.9767 15.27597577 77650
Epoch: Sep 19, 2026 • Age: 26 hours

現在のステータス

高度 487.6 km
遠地点 / 近地点 N/A
速度 7.63 km/s
衛星直下点 41.45°N, 141.46°W
打ち上げ日 May 7, 2025
運用期間 1.3 years
タイプ internet

技術仕様

分類 Payload
質量 575.00 kg
乾燥質量 530.00 kg
長さ 0.30 m
スパン 29.00 m
形状 ? Box + pan
製造者 SPXS
バスタイプ Starlink V2MO
フェーズステータス In Orbit
所有者/国 SPXS/US

Most Searched